When you browse on this site, cookies collect data to enhance your experience and personalize the content and advertising you see.
Visit our Privacy Policy to learn more. By continuing to use the site, you agree to this use of cookies and data.
EN

Hourly Weather Daru

Today, 8 August, Saturday

Time Temperature Precipitation Wind Pressure Humidity
00:00 +27°C° 0 mm 2 mps 757 mmHg 95%
01:00 +27°C° 0 mm 2 mps 757 mmHg 95%
02:00 +27°C° 0.1 mm 2 mps 757 mmHg 95%
03:00 +27°C° 0.1 mm 2 mps 757 mmHg 95%
04:00 +27°C° 0 mm 1 mps 756 mmHg 94%
05:00 +27°C° 0.1 mm 1 mps 757 mmHg 94%
06:00 +27°C° 0.1 mm 1 mps 757 mmHg 94%
07:00 +27°C° 0.1 mm 1 mps 757 mmHg 93%
08:00 +28°C° 0.1 mm 2 mps 757 mmHg 90%
09:00 +28°C° 0.1 mm 2 mps 758 mmHg 86%
10:00 +29°C° 0 mm 2 mps 758 mmHg 82%
11:00 +30°C° 0.5 mm 3 mps 758 mmHg 81%
12:00 +30°C° 0.5 mm 4 mps 757 mmHg 80%
13:00 +30°C° 0.5 mm 4 mps 757 mmHg 79%
14:00 +30°C° 0.5 mm 4 mps 757 mmHg 82%
15:00 +29°C° 0.5 mm 5 mps 756 mmHg 84%
16:00 +29°C° 0.5 mm 5 mps 756 mmHg 86%
17:00 +28°C° 0.1 mm 4 mps 756 mmHg 88%
18:00 +28°C° 0.1 mm 4 mps 756 mmHg 90%
19:00 +27°C° 0.1 mm 4 mps 757 mmHg 92%
20:00 +27°C° 0 mm 3 mps 757 mmHg 92%
21:00 +27°C° 0 mm 3 mps 757 mmHg 92%
22:00 +27°C° 0 mm 3 mps 758 mmHg 93%
23:00 +27°C° 0 mm 2 mps 758 mmHg 93%

Tomorrow, 9 August, Sunday

Time Temperature Precipitation Wind Pressure Humidity
00:00 +27°C° 0 mm 2 mps 758 mmHg 92%
01:00 +27°C° 0 mm 2 mps 757 mmHg 92%
02:00 +27°C° 0 mm 2 mps 757 mmHg 93%
03:00 +27°C° 0 mm 2 mps 757 mmHg 94%
04:00 +27°C° 0 mm 2 mps 757 mmHg 94%
05:00 +27°C° 0 mm 1 mps 757 mmHg 94%
06:00 +27°C° 0 mm 1 mps 757 mmHg 94%
07:00 +27°C° 0 mm 1 mps 757 mmHg 94%
08:00 +27°C° 0 mm 1 mps 758 mmHg 92%
09:00 +28°C° 0 mm 1 mps 758 mmHg 90%
10:00 +28°C° 0 mm 1 mps 759 mmHg 88%
11:00 +29°C° 0 mm 1 mps 758 mmHg 83%
12:00 +30°C° 0 mm 1 mps 757 mmHg 78%
13:00 +31°C° 0 mm 2 mps 757 mmHg 74%
14:00 +30°C° 0 mm 2 mps 756 mmHg 74%
15:00 +30°C° 0 mm 3 mps 756 mmHg 75%
16:00 +30°C° 0 mm 3 mps 756 mmHg 75%
17:00 +29°C° 0 mm 3 mps 756 mmHg 80%
18:00 +28°C° 0 mm 3 mps 756 mmHg 84%
19:00 +27°C° 0 mm 3 mps 756 mmHg 89%
20:00 +27°C° 0 mm 3 mps 757 mmHg 90%
21:00 +27°C° 0 mm 3 mps 757 mmHg 90%
22:00 +27°C° 0 mm 3 mps 758 mmHg 91%
23:00 +27°C° 0 mm 3 mps 758 mmHg 91%

Day after tomorrow, 10 August, Monday

Time Temperature Precipitation Wind Pressure Humidity
00:00 +27°C° 0 mm 2 mps 757 mmHg 91%
01:00 +27°C° 0 mm 2 mps 757 mmHg 92%
02:00 +27°C° 0 mm 1 mps 757 mmHg 91%
03:00 +27°C° 0 mm 1 mps 757 mmHg 90%
04:00 +27°C° 0 mm 1 mps 757 mmHg 90%
05:00 +27°C° 0.1 mm 1 mps 757 mmHg 90%
06:00 +27°C° 0.1 mm 2 mps 757 mmHg 90%
07:00 +27°C° 0.1 mm 2 mps 757 mmHg 90%
08:00 +28°C° 0.3 mm 2 mps 758 mmHg 87%
09:00 +29°C° 0.3 mm 3 mps 758 mmHg 83%
10:00 +30°C° 0.3 mm 3 mps 759 mmHg 79%
11:00 +30°C° 0.6 mm 3 mps 758 mmHg 80%
12:00 +30°C° 0.6 mm 3 mps 758 mmHg 80%
13:00 +30°C° 0.6 mm 3 mps 757 mmHg 80%
14:00 +30°C° 0.2 mm 3 mps 757 mmHg 79%
15:00 +30°C° 0.2 mm 3 mps 756 mmHg 78%
16:00 +30°C° 0.2 mm 3 mps 756 mmHg 76%
17:00 +29°C° 0 mm 3 mps 756 mmHg 81%
18:00 +28°C° 0 mm 3 mps 757 mmHg 86%
19:00 +27°C° 0 mm 4 mps 757 mmHg 90%
20:00 +27°C° 0 mm 4 mps 757 mmHg 91%
21:00 +27°C° 0 mm 4 mps 758 mmHg 92%
22:00 +27°C° 0 mm 4 mps 759 mmHg 93%
23:00 +27°C° 0.1 mm 4 mps 758 mmHg 93%

11 August, Tuesday

Time Temperature Precipitation Wind Pressure Humidity
00:00 +27°C° 0.1 mm 4 mps 758 mmHg 92%
01:00 +27°C° 0.1 mm 4 mps 758 mmHg 92%
02:00 +27°C° 0.4 mm 4 mps 758 mmHg 93%
03:00 +27°C° 0.4 mm 4 mps 757 mmHg 93%
04:00 +27°C° 0.4 mm 4 mps 757 mmHg 93%
05:00 +27°C° 0.4 mm 4 mps 758 mmHg 93%
06:00 +27°C° 0.4 mm 4 mps 758 mmHg 93%
07:00 +27°C° 0.4 mm 4 mps 758 mmHg 94%
08:00 +27°C° 0.7 mm 4 mps 759 mmHg 92%
09:00 +28°C° 0.7 mm 4 mps 759 mmHg 90%
10:00 +28°C° 0.7 mm 5 mps 759 mmHg 88%
11:00 +28°C° 0.8 mm 5 mps 759 mmHg 88%
12:00 +28°C° 0.8 mm 5 mps 758 mmHg 87%
13:00 +29°C° 0.8 mm 5 mps 757 mmHg 87%
14:00 +29°C° 0.2 mm 5 mps 757 mmHg 86%
15:00 +29°C° 0.2 mm 5 mps 757 mmHg 84%
16:00 +29°C° 0.2 mm 5 mps 756 mmHg 83%
17:00 +28°C° 0.1 mm 5 mps 757 mmHg 85%
18:00 +28°C° 0.1 mm 5 mps 757 mmHg 88%
19:00 +27°C° 0.1 mm 5 mps 757 mmHg 90%
20:00 +27°C° 0.1 mm 5 mps 758 mmHg 90%
21:00 +27°C° 0.1 mm 5 mps 759 mmHg 91%
22:00 +27°C° 0.1 mm 4 mps 759 mmHg 91%
23:00 +27°C° 0 mm 4 mps 759 mmHg 91%

12 August, Wednesday

Time Temperature Precipitation Wind Pressure Humidity
00:00 +27°C° 0 mm 4 mps 759 mmHg 92%
01:00 +27°C° 0 mm 4 mps 758 mmHg 92%
02:00 +27°C° 0 mm 4 mps 758 mmHg 92%
03:00 +27°C° 0 mm 3 mps 758 mmHg 92%
04:00 +27°C° 0 mm 3 mps 757 mmHg 91%
05:00 +27°C° 0.1 mm 4 mps 758 mmHg 91%
06:00 +27°C° 0.1 mm 4 mps 758 mmHg 91%
07:00 +27°C° 0.1 mm 4 mps 758 mmHg 90%
08:00 +27°C° 0.1 mm 4 mps 759 mmHg 89%
09:00 +28°C° 0.1 mm 4 mps 759 mmHg 87%
10:00 +28°C° 0.1 mm 4 mps 760 mmHg 85%
11:00 +29°C° 0 mm 4 mps 759 mmHg 81%
12:00 +29°C° 0 mm 5 mps 758 mmHg 77%
13:00 +30°C° 0 mm 5 mps 758 mmHg 73%
14:00 +30°C° 0 mm 5 mps 757 mmHg 74%
15:00 +30°C° 0 mm 5 mps 757 mmHg 76%
16:00 +29°C° 0 mm 5 mps 756 mmHg 77%
17:00 +29°C° 0 mm 5 mps 756 mmHg 80%
18:00 +28°C° 0 mm 5 mps 757 mmHg 83%
19:00 +28°C° 0 mm 5 mps 757 mmHg 86%
20:00 +28°C° 0.1 mm 5 mps 758 mmHg 87%
21:00 +27°C° 0.1 mm 6 mps 758 mmHg 87%
22:00 +27°C° 0.1 mm 6 mps 759 mmHg 88%
23:00 +27°C° 0.1 mm 6 mps 758 mmHg 88%

13 August, Thursday

Time Temperature Precipitation Wind Pressure Humidity
00:00 +27°C° 0.1 mm 6 mps 758 mmHg 88%
01:00 +27°C° 0.1 mm 7 mps 758 mmHg 88%
02:00 +27°C° 0.1 mm 6 mps 758 mmHg 88%
03:00 +27°C° 0.1 mm 6 mps 757 mmHg 88%
04:00 +27°C° 0.1 mm 6 mps 757 mmHg 88%
05:00 +27°C° 0.1 mm 6 mps 757 mmHg 88%
06:00 +27°C° 0.1 mm 6 mps 758 mmHg 88%
07:00 +27°C° 0.1 mm 6 mps 758 mmHg 87%
08:00 +28°C° 0.1 mm 6 mps 758 mmHg 85%
09:00 +28°C° 0.1 mm 7 mps 759 mmHg 83%
10:00 +29°C° 0.1 mm 7 mps 759 mmHg 80%
11:00 +29°C° 0.1 mm 7 mps 758 mmHg 79%
12:00 +29°C° 0.1 mm 7 mps 758 mmHg 78%
13:00 +29°C° 0.1 mm 7 mps 757 mmHg 77%
14:00 +29°C° 0.1 mm 7 mps 757 mmHg 77%
15:00 +29°C° 0.1 mm 7 mps 756 mmHg 78%
16:00 +29°C° 0.1 mm 7 mps 756 mmHg 78%
17:00 +28°C° 0.1 mm 7 mps 756 mmHg 81%
18:00 +28°C° 0.1 mm 7 mps 756 mmHg 84%
19:00 +27°C° 0.1 mm 6 mps 757 mmHg 87%
20:00 +27°C° 0.1 mm 7 mps 757 mmHg 87%
21:00 +27°C° 0.1 mm 7 mps 758 mmHg 87%
22:00 +27°C° 0.1 mm 7 mps 758 mmHg 87%
23:00 +27°C° 0.2 mm 7 mps 758 mmHg 87%
Show more